When you browse on this site, cookies collect data to enhance your experience and personalize the content and advertising you see.
Visit our Privacy Policy to learn more. By continuing to use the site, you agree to this use of cookies and data.
  • In Hungary
  • List of Countries
  • For 7 days
  • Water Temperature
  • Weather Map
  • News
  • Weather Widgets
  • user-avatar
    Login

    Hourly Weather Darzynko

    Today, 21 September, Saturday

    Time Temperature Precipitation Wind Pressure Humidity
    00:00 +12°C° 0 mm 4 mps 757 mmHg 93%
    01:00 +13°C° 0 mm 4 mps 757 mmHg 93%
    02:00 +13°C° 0 mm 4 mps 757 mmHg 93%
    03:00 +13°C° 0 mm 5 mps 757 mmHg 92%
    04:00 +13°C° 0 mm 5 mps 756 mmHg 92%
    05:00 +13°C° 0.1 mm 5 mps 756 mmHg 91%
    06:00 +13°C° 0.1 mm 5 mps 756 mmHg 90%
    07:00 +13°C° 0.1 mm 5 mps 756 mmHg 89%
    08:00 +14°C° 0 mm 5 mps 756 mmHg 85%
    09:00 +15°C° 0 mm 6 mps 756 mmHg 81%
    10:00 +15°C° 0 mm 6 mps 756 mmHg 77%
    11:00 +15°C° 0 mm 6 mps 756 mmHg 77%
    12:00 +15°C° 0 mm 6 mps 757 mmHg 76%
    13:00 +15°C° 0 mm 5 mps 757 mmHg 76%
    14:00 +15°C° 0 mm 5 mps 756 mmHg 76%
    15:00 +15°C° 0 mm 5 mps 756 mmHg 76%
    16:00 +15°C° 0 mm 5 mps 756 mmHg 77%
    17:00 +14°C° 0 mm 4 mps 756 mmHg 82%
    18:00 +13°C° 0 mm 4 mps 756 mmHg 87%
    19:00 +12°C° 0 mm 3 mps 755 mmHg 93%
    20:00 +11°C° 0 mm 3 mps 755 mmHg 94%
    21:00 +11°C° 0 mm 3 mps 755 mmHg 95%
    22:00 +11°C° 0 mm 3 mps 755 mmHg 96%
    23:00 +10°C° 0 mm 3 mps 755 mmHg 96%

    Tomorrow, 22 September, Sunday

    Time Temperature Precipitation Wind Pressure Humidity
    00:00 +10°C° 0 mm 3 mps 755 mmHg 95%
    01:00 +10°C° 0 mm 3 mps 755 mmHg 95%
    02:00 +10°C° 0 mm 3 mps 755 mmHg 95%
    03:00 +10°C° 0 mm 3 mps 754 mmHg 95%
    04:00 +10°C° 0 mm 3 mps 754 mmHg 95%
    05:00 +10°C° 0 mm 3 mps 754 mmHg 94%
    06:00 +11°C° 0 mm 3 mps 754 mmHg 92%
    07:00 +11°C° 0 mm 3 mps 754 mmHg 91%
    08:00 +13°C° 0 mm 3 mps 754 mmHg 83%
    09:00 +16°C° 0 mm 3 mps 754 mmHg 75%
    10:00 +18°C° 0 mm 3 mps 754 mmHg 67%
    11:00 +19°C° 0 mm 2 mps 754 mmHg 62%
    12:00 +20°C° 0 mm 2 mps 754 mmHg 58%
    13:00 +21°C° 0 mm 2 mps 754 mmHg 54%
    14:00 +21°C° 0 mm 2 mps 753 mmHg 57%
    15:00 +20°C° 0 mm 2 mps 753 mmHg 61%
    16:00 +19°C° 0 mm 2 mps 753 mmHg 65%
    17:00 +18°C° 0 mm 2 mps 753 mmHg 74%
    18:00 +16°C° 0 mm 3 mps 753 mmHg 84%
    19:00 +13°C° 0 mm 3 mps 753 mmHg 94%
    20:00 +12°C° 0 mm 3 mps 753 mmHg 94%
    21:00 +12°C° 0 mm 3 mps 753 mmHg 94%
    22:00 +12°C° 0 mm 3 mps 753 mmHg 94%
    23:00 +12°C° 0 mm 3 mps 753 mmHg 94%

    Day after tomorrow, 23 September, Monday

    Time Temperature Precipitation Wind Pressure Humidity
    00:00 +11°C° 0 mm 3 mps 753 mmHg 94%
    01:00 +11°C° 0 mm 3 mps 753 mmHg 93%
    02:00 +11°C° 0 mm 4 mps 753 mmHg 94%
    03:00 +11°C° 0 mm 4 mps 753 mmHg 94%
    04:00 +11°C° 0 mm 4 mps 753 mmHg 95%
    05:00 +11°C° 0 mm 4 mps 753 mmHg 94%
    06:00 +11°C° 0 mm 4 mps 753 mmHg 93%
    07:00 +12°C° 0 mm 4 mps 753 mmHg 92%
    08:00 +13°C° 0 mm 4 mps 753 mmHg 87%
    09:00 +14°C° 0 mm 4 mps 753 mmHg 81%
    10:00 +15°C° 0 mm 4 mps 754 mmHg 76%
    11:00 +17°C° 0 mm 4 mps 753 mmHg 70%
    12:00 +18°C° 0 mm 4 mps 753 mmHg 65%
    13:00 +20°C° 0 mm 4 mps 753 mmHg 60%
    14:00 +19°C° 0 mm 4 mps 752 mmHg 61%
    15:00 +19°C° 0 mm 4 mps 752 mmHg 63%
    16:00 +19°C° 0 mm 4 mps 752 mmHg 64%
    17:00 +17°C° 0 mm 4 mps 752 mmHg 70%
    18:00 +15°C° 0 mm 4 mps 752 mmHg 76%
    19:00 +13°C° 0 mm 4 mps 752 mmHg 82%
    20:00 +13°C° 0 mm 4 mps 752 mmHg 83%
    21:00 +12°C° 0 mm 4 mps 752 mmHg 84%
    22:00 +12°C° 0 mm 3 mps 752 mmHg 85%
    23:00 +12°C° 0 mm 3 mps 752 mmHg 86%

    24 September, Tuesday

    Time Temperature Precipitation Wind Pressure Humidity
    00:00 +11°C° 0 mm 3 mps 752 mmHg 87%
    01:00 +11°C° 0 mm 3 mps 752 mmHg 88%
    02:00 +10°C° 0 mm 3 mps 751 mmHg 89%
    03:00 +10°C° 0 mm 3 mps 751 mmHg 90%
    04:00 +10°C° 0 mm 3 mps 751 mmHg 91%
    05:00 +10°C° 0 mm 3 mps 751 mmHg 89%
    06:00 +10°C° 0 mm 3 mps 751 mmHg 87%
    07:00 +10°C° 0 mm 3 mps 751 mmHg 85%
    08:00 +12°C° 0 mm 3 mps 751 mmHg 78%
    09:00 +13°C° 0 mm 3 mps 752 mmHg 72%
    10:00 +16°C° 0 mm 3 mps 752 mmHg 65%
    11:00 +17°C° 0 mm 3 mps 752 mmHg 63%
    12:00 +18°C° 0 mm 2 mps 752 mmHg 61%
    13:00 +18°C° 0 mm 2 mps 751 mmHg 59%
    14:00 +18°C° 0 mm 2 mps 751 mmHg 61%
    15:00 +18°C° 0 mm 2 mps 751 mmHg 63%
    16:00 +18°C° 0 mm 2 mps 751 mmHg 65%
    17:00 +16°C° 0 mm 3 mps 751 mmHg 70%
    18:00 +14°C° 0 mm 3 mps 751 mmHg 75%
    19:00 +13°C° 0 mm 3 mps 750 mmHg 80%
    20:00 +14°C° 0.1 mm 2 mps 750 mmHg 80%
    21:00 +14°C° 0.1 mm 2 mps 750 mmHg 81%
    22:00 +14°C° 0.1 mm 2 mps 750 mmHg 82%
    23:00 +14°C° 0.1 mm 2 mps 750 mmHg 82%

    25 September, Wednesday

    Time Temperature Precipitation Wind Pressure Humidity
    00:00 +14°C° 0.1 mm 2 mps 750 mmHg 83%
    01:00 +14°C° 0.1 mm 2 mps 749 mmHg 84%
    02:00 +14°C° 0.3 mm 2 mps 749 mmHg 86%
    03:00 +13°C° 0.3 mm 2 mps 749 mmHg 88%
    04:00 +13°C° 0.3 mm 2 mps 749 mmHg 90%
    05:00 +13°C° 0.2 mm 2 mps 748 mmHg 90%
    06:00 +13°C° 0.2 mm 2 mps 748 mmHg 90%
    07:00 +14°C° 0.2 mm 2 mps 748 mmHg 90%
    08:00 +15°C° 0 mm 2 mps 748 mmHg 85%
    09:00 +16°C° 0 mm 3 mps 748 mmHg 80%
    10:00 +17°C° 0 mm 3 mps 749 mmHg 76%
    11:00 +17°C° 0.4 mm 3 mps 748 mmHg 75%
    12:00 +17°C° 0.4 mm 3 mps 748 mmHg 73%
    13:00 +18°C° 0.4 mm 3 mps 748 mmHg 72%
    14:00 +17°C° 0.5 mm 3 mps 748 mmHg 75%
    15:00 +17°C° 0.5 mm 3 mps 747 mmHg 78%
    16:00 +16°C° 0.5 mm 3 mps 747 mmHg 81%
    17:00 +15°C° 0.4 mm 2 mps 747 mmHg 85%
    18:00 +15°C° 0.4 mm 2 mps 747 mmHg 88%
    19:00 +14°C° 0.4 mm 2 mps 747 mmHg 91%
    20:00 +14°C° 0.5 mm 2 mps 747 mmHg 92%
    21:00 +13°C° 0.5 mm 3 mps 747 mmHg 93%
    22:00 +13°C° 0.5 mm 3 mps 747 mmHg 95%
    23:00 +12°C° 0.6 mm 3 mps 747 mmHg 95%

    26 September, Thursday

    Time Temperature Precipitation Wind Pressure Humidity
    00:00 +12°C° 0.6 mm 3 mps 747 mmHg 95%
    01:00 +12°C° 0.6 mm 3 mps 747 mmHg 95%
    02:00 +12°C° 1 mm 3 mps 747 mmHg 95%
    03:00 +12°C° 1 mm 3 mps 747 mmHg 95%
    04:00 +12°C° 1 mm 3 mps 747 mmHg 95%
    05:00 +12°C° 1.8 mm 3 mps 747 mmHg 95%
    06:00 +12°C° 1.8 mm 3 mps 747 mmHg 96%
    07:00 +12°C° 1.8 mm 3 mps 747 mmHg 96%
    08:00 +12°C° 1.2 mm 3 mps 747 mmHg 96%
    09:00 +12°C° 1.2 mm 3 mps 748 mmHg 95%
    10:00 +13°C° 1.2 mm 3 mps 748 mmHg 95%
    11:00 +13°C° 0.6 mm 3 mps 748 mmHg 92%
    12:00 +15°C° 0.6 mm 2 mps 748 mmHg 90%
    13:00 +15°C° 0.6 mm 2 mps 748 mmHg 87%
    14:00 +15°C° 0.5 mm 2 mps 748 mmHg 86%
    15:00 +16°C° 0.5 mm 2 mps 748 mmHg 85%
    16:00 +16°C° 0.5 mm 2 mps 748 mmHg 85%
    17:00 +15°C° 0.4 mm 2 mps 748 mmHg 87%
    18:00 +14°C° 0.4 mm 3 mps 748 mmHg 89%
    19:00 +13°C° 0.4 mm 3 mps 748 mmHg 91%
    20:00 +13°C° 0.2 mm 3 mps 748 mmHg 92%
    21:00 +13°C° 0.2 mm 3 mps 748 mmHg 93%
    22:00 +13°C° 0.2 mm 3 mps 748 mmHg 94%
    23:00 +13°C° 0.2 mm 3 mps 747 mmHg 94%
    Show more